Location: Newark
(54.4333°N, 18.5500°E)
Time: 00:59:18
(UTC+00:00)

Envisat - Pass Details

Date: 14 December 2019
Orbit: 764 x 766 km, 98.1° (Epoch: 17 January)

Event Time Altitude Azimuth Distance (km) Brightness Sun altitude
Rises 16:49:16 0° 176° (S) 3,224 6.3 -20.0°
Reaches altitude 10° 16:51:37 10° 180° (S) 2,302 5.6 -20.3°
Maximum altitude 16:56:36 58° 259° (W) 899 3.6 -21.0°
Drops below altitude 10° 17:01:39 10° 339° (NNW) 2,318 5.6 -21.7°
Sets 17:04:01 0° 343° (NNW) 3,248 6.3 -22.1°
